Weather History for Morrisville, VT

Change the Weather History Date:

Sunday, March 31, 2013

  Actual Average Record
Temperature  
Mean Temperature 37 °F 35 °F  
Max Temperature 53 °F 46 °F 81 °F (1998)
Min Temperature 21 °F 24 °F 17 °F (2008)
Degree Days  
Heating Degree Days 28 30  
Month to date heating degree days 1038 1126  
Since 1 July heating degree days 6570 7087  
Cooling Degree Days 0 0  
Month to date cooling degree days 0 0  
Year to date cooling degree days 0 0  
Moisture  
Dew Point 23 °F    
Average Humidity 57    
Maximum Humidity 85    
Minimum Humidity 29    
Precipitation  
Precipitation 0.02 in 0.07 in 0.55 in (1951)
Month to date precipitation 1.77 1.67  
Year to date precipitation 4.48 5.95  
Sea Level Pressure  
Sea Level Pressure 29.95 in    
Wind  
Wind Speed 6 mph (South)    
Max Wind Speed 18 mph    
Max Gust Speed 30 mph    
Visibility 10 miles    
Events Rain    
T = Trace of Precipitation, MM = Missing Value Source: NWS Daily Summary

Daily Weather History Graph

Daily Weather History Graph

Search for Another Location

Airport:

Trip Planner

Search our weather history database for the weather conditions in past years. The results will help you decide how hot, cold, wet, or windy it might be!

Date:

Astronomy

Mar. 31, 2013 Rise Set
Actual Time 6:32 AM EDT 7:16 PM EDT
Civil Twilight 6:03 AM EDT 7:46 PM EDT
Nautical Twilight 5:28 AM EDT 8:21 PM EDT
Astronomical Twilight 4:52 AM EDT 8:57 PM EDT
Moon No Moon Rise 9:07 AM EDT (3/31)
Length of Visible Light 13h 42m
Length of Day
12h 44m
Waning Gibbous, 78% of the Moon is Illuminated
Mar 31
Waning Gibbous
Apr 3
Last Quarter
Apr 10
New
Apr 18
First Quarter
Apr 25
Full

Hourly Weather History & Observations

Time (EDT) Temp. Windchill Dew Point Humidity Pressure Visibility Wind Dir Wind Speed Gust Speed Precip Events Conditions
12:54 AM 25.0 °F - 19.0 °F 78% 30.12 in 10.0 mi Calm Calm - N/A   Clear
1:54 AM 25.0 °F - 18.0 °F 75% 30.12 in 10.0 mi Calm Calm - N/A   Clear
2:54 AM 24.1 °F - 19.9 °F 84% 30.12 in 10.0 mi Calm Calm - N/A   Clear
3:54 AM 24.1 °F - 19.0 °F 81% 30.12 in 9.0 mi Calm Calm - N/A   Clear
4:54 AM 21.9 °F - 18.0 °F 85% 30.11 in 10.0 mi Calm Calm - N/A   Clear
5:54 AM 21.9 °F - 18.0 °F 85% 30.09 in 10.0 mi Calm Calm - N/A   Clear
6:54 AM 21.0 °F - 18.0 °F 88% 30.08 in 10.0 mi Calm Calm - N/A   Clear
7:54 AM 26.1 °F - 21.9 °F 84% 30.08 in 10.0 mi Calm Calm - N/A   Clear
8:54 AM 32.0 °F 27.5 °F 24.1 °F 73% 30.06 in 10.0 mi South 4.6 mph - N/A   Clear
9:54 AM 39.9 °F 37.8 °F 24.1 °F 53% 30.04 in 10.0 mi SSE 3.5 mph - N/A   Clear
10:54 AM 45.0 °F - 23.0 °F 42% 30.02 in 10.0 mi Calm Calm - N/A   Clear
11:54 AM 50.0 °F - 21.9 °F 33% 29.99 in 10.0 mi SSE 5.8 mph - N/A   Clear
12:54 PM 52.0 °F - 23.0 °F 32% 29.96 in 10.0 mi South 9.2 mph 17.3 mph N/A   Clear
1:54 PM 52.0 °F - 23.0 °F 32% 29.92 in 10.0 mi SSE 12.7 mph 20.7 mph N/A   Clear
2:54 PM 52.0 °F - 21.9 °F 31% 29.89 in 10.0 mi SSE 13.8 mph 21.9 mph N/A   Partly Cloudy
3:54 PM 53.1 °F - 23.0 °F 31% 29.86 in 10.0 mi SSE 15.0 mph 24.2 mph N/A   Partly Cloudy
4:54 PM 52.0 °F - 23.0 °F 32% 29.84 in 10.0 mi South 11.5 mph 21.9 mph N/A   Partly Cloudy
5:54 PM 51.1 °F - 21.9 °F 32% 29.83 in 10.0 mi South 15.0 mph 25.3 mph N/A   Scattered Clouds
6:54 PM 50.0 °F - 23.0 °F 35% 29.81 in 10.0 mi South 8.1 mph 20.7 mph N/A   Mostly Cloudy
7:54 PM 48.9 °F - 24.1 °F 38% 29.79 in 10.0 mi South 9.2 mph 20.7 mph N/A   Clear
9:54 PM 46.9 °F - 28.0 °F 48% 29.78 in 10.0 mi South 8.1 mph 20.7 mph N/A   Overcast
11:34 PM 41.0 °F 37.1 °F 35.6 °F 81% 29.75 in 10.0 mi South 5.8 mph 16.1 mph 0.00 in Rain Light Rain
11:49 PM 39.2 °F 35.9 °F 35.6 °F 87% 29.74 in 8.0 mi SSE 4.6 mph - 0.01 in Rain Light Rain
11:54 PM 39.9 °F 36.7 °F 35.1 °F 83% 29.76 in 9.0 mi SSE 4.6 mph - 0.01 in Rain Light Rain